Tracking 27112 objects as of 27-Mar-2023
HD Live streaming from Space Station
objects crossing your sky now

SHIYAN 6 02 (SY-6 02)

Track SHIYAN 6 02 (SY-6 02) now!
10-day predictions


NORAD ID: 45859
Int'l Code: 2020-043A
Perigee: 610.2 km
Apogee: 796.3 km
Inclination: 98.2 °
Period: 98.7 minutes
Semi major axis: 7074 km
RCS: Unknown
Launch date: July 4, 2020
Source: People's Republic of China (PRC)
Launch site: Jiuquan Satellite Launch Center, China (JSC)
Your satellite tracking list
Your tracking list is empty




NASA's NSSDC Master Catalog

Two Line Element Set (TLE):
1 45859U 20043A   23086.56468777  .00000422  00000-0  89994-4 0  9990
2 45859  98.2012  94.9141 0131498 301.2022  57.6326 14.59084988145026
Source of the keplerian elements: AFSPC